Location: Boiro
(42.6475°N, 8.8834°W)
Time: 04:11:29
(UTC+01:00)

Vanguard 1 Rocket - Pass Details

Date: 06 December 2021
Orbit: 651 x 4224 km, 34.3° (Epoch: 21 January)

Event Time Altitude Azimuth Distance (km) Brightness Sun altitude
Rises 04:41:15 0° 250° (WSW) 4,480 - -45.1°
Reaches altitude 10° 04:43:40 10° 246° (WSW) 3,815 - -44.6°
Exits shadow 04:53:26 60° 180° (S) 2,664 9.4 -42.9°
Maximum altitude 04:54:06 61° 169° (S) 2,715 9.5 -42.7°
Drops below altitude 10° 05:14:14 10° 97° (E) 6,897 12.5 -39.1°
Sets 05:20:31 0° 94° (E) 8,239 13.2 -37.9°
